Overview Statistics Trail Chart Weather Telemetry Raw packets
 

This is the latest recevied weather packets stored in our database for station/object K0QED. If no packets are shown the sender has not sent any weather packets the latest 10 day(s).

<< 36 37 38 39 40 41 42 >>
Time Temp. Humidity Pressure Rain* Wind** Luminosity Snow
1788376374 27.78° C 28% 1024.9 hPa 0 mm - 690 W/m² -
1788376070 27.78° C 27% 1024.7 hPa 0 mm - 691 W/m² -
1788375769 27.78° C 28% 1024.9 hPa 0 mm - 678 W/m² -
1788375465 27.78° C 27% 1025.2 hPa 0 mm - 688 W/m² -
1788375160 27.78° C 28% 1024.9 hPa 0 mm - 696 W/m² -
1788374856 26.67° C 31% 1025.2 hPa 0 mm - 725 W/m² -
1788374552 25° C 31% 1025.4 hPa 0 mm - 795 W/m² -
1788374247 26.67° C 30% 1025.4 hPa 0 mm - 173 W/m² -
1788373943 27.78° C 29% 1025.2 hPa 0 mm - 134 W/m² -
1788373639 27.78° C 28% 1025.1 hPa 0 mm - 672 W/m² -
1788373335 26.67° C 30% 1025.4 hPa 0 mm - 652 W/m² -
1788373032 27.22° C 30% 1025.2 hPa 0 mm - 646 W/m² -
1788372731 26.67° C 30% 1025.5 hPa 0 mm - 648 W/m² -
1788372442 26.67° C 30% 1025.7 hPa 0 mm - 620 W/m² -
1788372121 26.67° C 30% 1025.6 hPa 0 mm - 640 W/m² -
1788371821 26.67° C 31% 1025.6 hPa 0 mm - 655 W/m² -
1788371517 26.11° C 32% 1025.9 hPa 0 mm - 662 W/m² -
1788371213 26.11° C 31% 1025.9 hPa 0 mm - 638 W/m² -
1788370909 26.11° C 30% 1025.9 hPa 0 mm - 639 W/m² -
1788370604 25.56° C 31% 1025.9 hPa 0 mm - 660 W/m² -
1788370299 25.56° C 31% 1026.4 hPa 0 mm - 683 W/m² -
1788369993 25.56° C 31% 1026 hPa 0 mm - 151 W/m² -
1788369692 25.56° C 32% 1026.1 hPa 0 mm - 634 W/m² -
1788369388 25.56° C 31% 1026 hPa 0 mm - 682 W/m² -
1788369084 25.56° C 32% 1026 hPa 0 mm - 705 W/m² -

* Rain latest hour (hover to see other rain measurements)
** Current wind speed in m/s (hover to see current wind gust speed)